Weather History for Anchorage Merrill, AK

Change the Weather History Date:

Tuesday, October 5, 2010

  Actual Average Record
Temperature  
Mean Temperature 44 °F -  
Max Temperature 51 °F 45 °F 53 °F (1998)
Min Temperature 36 °F 32 °F 26 °F (1996)
Degree Days  
Heating Degree Days 22    
Moisture  
Dew Point 30 °F    
Average Humidity 61    
Maximum Humidity 73    
Minimum Humidity 43    
Precipitation  
Precipitation 0.00 in - - ()
Sea Level Pressure  
Sea Level Pressure 29.19 in    
Wind  
Wind Speed 4 mph (East)    
Max Wind Speed 9 mph    
Max Gust Speed -    
Visibility 10 miles    
Events      
Averages and records for this station are not official NWS values.
T = Trace of Precipitation, MM = Missing Value Source: NWS Daily Summary

Daily Weather History Graph

Daily Weather History Graph

Search for Another Location

Airport:

Trip Planner

Search our weather history database for the weather conditions in past years. The results will help you decide how hot, cold, wet, or windy it might be!

Date:

Astronomy

Oct. 05, 2010 Rise Set
Actual Time 8:16 AM AKDT 7:17 PM AKDT
Civil Twilight 7:33 AM AKDT 8:00 PM AKDT
Nautical Twilight 6:43 AM AKDT 8:50 PM AKDT
Astronomical Twilight 5:50 AM AKDT 9:43 PM AKDT
Moon 5:20 AM AKDT (10/5) 6:11 PM AKDT (10/5)
Length of Visible Light 12h 27m
Length of Day
11h 01m
Waning Crescent, 6% of the Moon is Illuminated
Oct 5
Waning Crescent
Oct 7
New
Oct 14
First Quarter
Oct 22
Full
Oct 30
Last Quarter

Hourly Weather History & Observations

Time (AKDT) Temp. Windchill Dew Point Humidity Pressure Visibility Wind Dir Wind Speed Gust Speed Precip Events Conditions
12:53 AM 42.1 °F 39.2 °F 32.0 °F 67% 29.48 in 10.0 mi East 4.6 mph - N/A   Mostly Cloudy
1:53 AM 42.1 °F 40.2 °F 30.9 °F 65% 29.44 in 10.0 mi NE 3.5 mph - N/A   Mostly Cloudy
2:53 AM 39.9 °F - 32.0 °F 73% 29.39 in 10.0 mi Calm Calm - N/A   Mostly Cloudy
3:53 AM 39.9 °F 35.8 °F 32.0 °F 73% 29.34 in 10.0 mi North 5.8 mph - N/A   Mostly Cloudy
4:53 AM 39.9 °F 35.8 °F 32.0 °F 73% 29.27 in 10.0 mi North 5.8 mph - N/A   Mostly Cloudy
5:53 AM 39.9 °F 33.9 °F 30.9 °F 70% 29.21 in 10.0 mi North 9.2 mph - N/A   Scattered Clouds
6:53 AM 39.0 °F 34.0 °F 30.0 °F 70% 29.17 in 10.0 mi NE 6.9 mph - N/A   Clear
7:53 AM 37.9 °F 32.7 °F 30.0 °F 73% 29.12 in 10.0 mi ENE 6.9 mph - N/A   Mostly Cloudy
8:53 AM 39.0 °F 35.7 °F 30.0 °F 70% 29.09 in 10.0 mi ENE 4.6 mph - N/A   Mostly Cloudy
9:53 AM 39.9 °F - 30.9 °F 70% 29.08 in 10.0 mi Calm Calm - N/A   Mostly Cloudy
10:53 AM 41.0 °F 39.0 °F 30.9 °F 67% 29.06 in 10.0 mi ESE 3.5 mph - N/A   Scattered Clouds
11:53 AM 45.0 °F - 30.9 °F 58% 29.05 in 10.0 mi Calm Calm - N/A   Scattered Clouds
12:53 PM 46.9 °F - 30.9 °F 54% 29.06 in 10.0 mi SSW 5.8 mph - N/A   Scattered Clouds
1:53 PM 48.0 °F - 30.9 °F 52% 29.07 in 10.0 mi South 6.9 mph - N/A   Scattered Clouds
2:53 PM 48.9 °F - 30.9 °F 50% 29.08 in 10.0 mi South 8.1 mph - N/A   Clear
3:53 PM 50.0 °F - 28.9 °F 44% 29.09 in 10.0 mi South 6.9 mph - N/A   Scattered Clouds
4:53 PM 50.0 °F - 28.0 °F 43% 29.12 in 10.0 mi South 5.8 mph - N/A   Scattered Clouds
5:53 PM 50.0 °F - 28.0 °F 43% 29.14 in 10.0 mi South 6.9 mph - N/A   Scattered Clouds
6:53 PM 48.9 °F - 30.9 °F 50% 29.17 in 10.0 mi Calm Calm - N/A   Scattered Clouds
7:53 PM 46.9 °F - 28.9 °F 50% 29.20 in 10.0 mi Calm Calm - N/A   Scattered Clouds
8:53 PM 43.0 °F - 27.0 °F 53% 29.22 in 10.0 mi Calm Calm - N/A   Clear
9:53 PM 39.0 °F - 27.0 °F 62% 29.24 in 10.0 mi Calm Calm - N/A   Clear
10:53 PM 37.0 °F - 27.0 °F 67% 29.26 in 10.0 mi Calm Calm - N/A   Clear
11:53 PM 36.0 °F 33.3 °F 27.0 °F 70% 29.27 in 10.0 mi East 3.5 mph - N/A   Scattered Clouds